Regional Weather Roundup
Issued by NWS

Home | Current Version | Previous Version | Graphics & Text | Print | Product List | Glossary On
Versions: 1 2 3 4 5 6 7 8 9 10 11 12 13 14 15 16 17 18 19 20 21 22 23 24 25 26 27 28 29 30 31 32 33 34 35 36 37 38 39 40 41 42 43 44 45 46 47 48 49 50
000
ASUS45 KTFX 301510
RWRMT
MONTANA REGIONAL WEATHER ROUNDUP
NATIONAL WEATHER SERVICE GREAT FALLS MT
900 AM MDT MON MAY 30 2016

NOTE: "FAIR" INDICATES FEW OR NO CLOUDS BELOW 12000 FEET WITH NO
SIGNIFICANT WEATHER AND/OR OBSTRUCTIONS TO VISIBILITY.

MTZ001>007-043-301600-
WEST OF THE DIVIDE

CITY           SKY/WX    TMP DP  RH WIND       PRES   REMARKS
KALISPELL      MOSUNNY   51  42  71 VRB6      30.15R
MISSOULA       SUNNY     57  40  52 NW7       30.14R
BUTTE          CLOUDY    48  35  60 NW9       30.15R
MULLAN PASS    SUNNY     38  30  73 VRB3      30.19R
ANACONDA         N/A     52  34  50 W13       30.13R
DEER LODGE       N/A     52  37  58 NW6       30.15R
EUREKA           N/A     48  39  71 W3        30.19R
HAMILTON         N/A     57  30  35 W10G16    30.14R
LIBBY            N/A     52  39  62 CALM      30.19R
$$

MTZ008-052>055-301600-
SOUTHWEST MONTANA

CITY           SKY/WX    TMP DP  RH WIND       PRES   REMARKS
BOZEMAN        CLOUDY    55  44  66 SW3       30.09R
DILLON         SUNNY     55  32  41 NW3       30.11F
W YELLOWSTONE  MOSUNNY   50  39  66 NW3       30.14R
ENNIS          PTSUNNY   54  36  50 W8        30.17R
$$

MTZ009-010-012-014-046-048-049-054-301600-
EAST SLOPES AND CENTRAL MONTANA

CITY           SKY/WX    TMP DP  RH WIND       PRES   REMARKS
CUT BANK       CLOUDY    40  38  93 NW17      30.10R
GREAT FALLS    CLOUDY    47  43  86 NW10      30.10R
MALMSTROM AFB  CLOUDY    46  41  81 NW12      30.10R
HELENA         MOSUNNY   60  34  37 NW21G26   30.07F
CHOTEAU          N/A     48  39  71 N15G21    30.13R
$$

MTZ011-013-016-021-045-047-050-051-301600-
NORTH CENTRAL MONTANA

CITY           SKY/WX    TMP DP  RH WIND       PRES   REMARKS
HAVRE          CLOUDY    49  46  90 W12       30.02S
LEWISTOWN      CLOUDY    52  42  69 NW13      30.04R
N BAR RANCH      N/A     57  41  54 NW21      30.03S
CHINOOK          N/A     50  46  87 W15       30.01R
$$

MTZ017>020-022>027-061-062-301600-
NORTHEAST MONTANA

CITY           SKY/WX    TMP DP  RH WIND       PRES   REMARKS
GLASGOW        CLOUDY    60  50  69 CALM      29.92S
JORDAN           N/A     56  49  77 N7        29.94F
SIDNEY         RAIN      55  52  89 NW7       29.92F
WOLF POINT     LGT RAIN  58  51  78 W12       29.93R
POPLAR           N/A     59  48  67 W7        29.95R
$$

MTZ028>42-056>058-301600-
SOUTHCENTRAL AND SOUTHEAST MONTANA

CITY           SKY/WX    TMP DP  RH WIND       PRES   REMARKS
BAKER          TSTM      53  50  89 NW15G23   29.95R
BILLINGS       PTSUNNY   60  49  66 SW10      30.01S
LIVINGSTON     CLOUDY    51  44  77 W8        30.06F
MILES CITY     CLOUDY    59  50  72 NW12      29.96R
FORSYTH          N/A     57  54  88 CALM      29.95F
$$

REGIONAL REPORTS...DAKOTAS

CITY           SKY/WX    TMP DP  RH WIND       PRES   REMARKS
WILLISTON      CLOUDY    56  48  74 SW12      29.93R
MINOT          MOSUNNY   73  54  51 N5        29.88F
DICKINSON      CLOUDY    57  50  77 NW13      29.90R
BEACH          PTSUNNY   55  54  94 W21G30    29.98R
CROSBY           N/A     63  46  55 SW12      29.92R
WATFORD CITY   LGT RAIN  54  48  82 SW13      29.95R
BISMARCK       SUNNY     68  55  63 CALM      29.90F
GRAND FORKS    CLOUDY    68  54  60 SE5       29.92F
FARGO          SUNNY     73  53  49 S9        29.92F
BUFFALO SD       N/A     60  53  77 N8        29.84R
RAPID CITY     PTSUNNY   63  56  78 SE7       29.87S
$$

REGIONAL REPORTS...WYOMING/IDAHO/WASHINGTON

CITY           SKY/WX    TMP DP  RH WIND       PRES   REMARKS
GILLETTE       MOSUNNY   58  45  62 N15       29.96R
SHERIDAN       MOSUNNY   55  47  74 W13       30.02R
BUFFALO WY     CLOUDY    54  44  69 N24G40    30.01R
CODY           MOSUNNY   55  45  67 N13       30.04S
YELLOWSTONE LA   N/A     46  35  65 CALM      30.18S
IDAHO FALLS    SUNNY     57  45  64 SW15      30.12R
SALMON         SUNNY     57  36  44 SE3       30.13S
BOISE          MOSUNNY   55  40  56 W10       30.17R
SPOKANE        MOSUNNY   53  34  48 N7        30.21R
$$

REGIONAL REPORTS...ALBERTA

CITY           SKY/WX    TMP DP  RH WIND       PRES   REMARKS
EDMONTON       CLOUDY    46  39  76 NW16G22   30.08R
CALGARY        PTSUNNY   45  36  70 N24G32    30.09R
LETHBRIDGE     PTSUNNY   45  43  93 W18       30.09R
MEDICINE HAT   CLOUDY    48  43  81 NW21G30   29.96R
WATERTON GATE    N/A     48  36  61 NE3         N/A
CARDSTON         N/A     46  39  76 W7          N/A
$$

REGIONAL REPORTS...SASKATCHEWAN

CITY           SKY/WX    TMP DP  RH WIND       PRES   REMARKS
SWIFT CURRENT  PTSUNNY   52  46  82 W18       29.89R
REGINA         MOSUNNY   61  48  63 NE7       29.88S
SASKATOON      CLOUDY    52  48  87 NE16      29.95S
CYPRESS HILLS    N/A     45  39  81 W9G17       N/A
VAL MARIE        N/A     54  48  82 NW6         N/A
ROCKGLEN         N/A     55  46  71 SW15        N/A
$$



USA.gov is the U.S. government's official web portal to all federal, state and local government web resources and services.